Weather Roundup
Issued by NWS Chicago, IL

Home | Current Version | Previous Version | Graphics & Text | Print | Product List | Glossary On
Versions: 1 2 3 4 5 6 7 8 9 10 11 12 13 14 15 16 17 18 19 20 21 22 23 24 25 26 27 28 29 30 31 32 33 34 35 36 37 38 39 40 41 42 43 44 45 46 47 48 49 50
000
NZUS59 KLOT 211906
HRRLOT

CHICAGO AREA WEATHER ROUNDUP
NATIONAL WEATHER SERVICE CHICAGO/ROMEOVILLE IL
200 PM CDT TUE OCT 21 2014

NOTE: "FAIR" INDICATES FEW OR NO CLOUDS BELOW 12,000 FEET WITH NO
SIGNIFICANT WEATHER AND/OR OBSTRUCTIONS TO VISIBILITY.

* THESE STATIONS ARE NOT UNDER NWS QUALITY CONTROL. THEY ALSO MAY NOT
  REPORT WEATHER SUCH AS PRECIPITATION OR FOG.

ILZ005-006-012>014-019>023-212000-
NORTHEAST ILLINOIS

CITY           SKY/WX    TMP DP  RH WIND       PRES   REMARKS
OHARE          CLOUDY    51  40  65 N21G26    30.18R
MIDWAY         CLOUDY    53  42  66 N17       30.17S
AURORA         CLOUDY    55  39  54 NE15G21   30.18S
LANSING*       RAIN      49  46  89 N9G20     30.17S
JOLIET*        CLOUDY    53  40  62 NE12      30.17S
WAUKEGAN       CLOUDY    48  39  71 N9        30.19S
DUPAGE AIRPORT CLOUDY    53  40  61 N15       30.18R
WHEELING       CLOUDY    50  40  68 N10       30.20R
KANKAKEE*      CLOUDY    53  43  70 NE10G18   30.16F
MORRIS*        CLOUDY    56  42  59 N7        30.16F
LEWIS AIRPORT* CLOUDY    53  40  61 NE10      30.17S
NORTHERLY IS     N/A     51  44  77 N16         N/A
$$

WIZ051-052-058>065-066-070>072-212000-
SOUTHEAST WISCONSIN

CITY           SKY/WX    TMP DP  RH WIND       PRES   REMARKS
MILWAUKEE      CLOUDY    48  38  68 N14       30.21R
KENOSHA*       CLOUDY    50  39  66 N12       30.20S
RACINE*        CLOUDY    48  40  73 N14G21    30.21S
BURLINGTON     CLOUDY    48  37  66 N8        30.20S
WAUKESHA       CLOUDY    45  36  70 N10       30.22S
WEST BEND      CLOUDY    48  34  57 N8        30.21S
$$

INZ001>003-010>013-019-020-212000-
NORTHWEST INDIANA

CITY           SKY/WX    TMP DP  RH WIND       PRES   REMARKS
GARY*          CLOUDY    52  43  71 N12G23    30.17R
MICHIGAN CITY* NOT AVBL
RENSSELAER*    NOT AVBL
VALPARAISO     CLOUDY    53  40  61 N10G17    30.14S
$$

LMZ740>746-212000-
SOUTHERN LAKE MICHIGAN

STATION/POSITION TIME  SKY/WX   TEMP WIND        PRES    VSBY
                                AIR  DIR/SP/G
                 (UTC)          (F)  (DEG/KT/KT) (MB)    (MI)
HARRISON CRIB    1900            50  350/ 25/ 28   N/A
BURNHAM HARBOR   1900            50  330/ 15/ 19   N/A
CALUMET HARBOR   1900            51  340/ 14/ 19 1020.4S
BURNS HARBOR     NOT AVBL
MICHIGAN CITY    1900            51  350/ 23/ 25   N/A
$$

ABBREVIATIONS USED IN REMARKS
   TC - TEMPERATURE IN CELSIUS
  WCI - WIND CHILL INDEX
   HX - HEAT INDEX
  VSB - VISIBILITY
$$



USA.gov is the U.S. government's official web portal to all federal, state and local government web resources and services.